Starlink 11531

operational
NORAD ID: 62841 Int'l Des: 2025-019 Owner: SPXS Country: US Constellation: starlink
LEOCIRCULAR

Über Starlink 11531

Beschreibung wird geladen...

Live-Position

3D-Globus wird geladen...

Nächste Überflüge

Höhenverlauf

Altitude vs Time

uPlot chart will show altitude changes over time

Zweizeiliger Elementsatz

1 62841U 25019N 25258.10257831 .00217251 00000-0 16441-2 0 9993
2 62841 42.9981 284.5225 0001142 239.1492 120.9264 15.70964611 36263
Epoch: 15. Sept. 2025 • Age: 11 hours

Aktueller Status

Höhe 358.0 km
Geschwindigkeit 7.70 km/s
Subsatellitenpunkt 37.94°N, 153.8°W
Startdatum 27. Jan. 2025
Alter 0.6 years
Typ internet

Technische Details

Klassifizierung Payload
Masse 960.00 kg
Trockenmasse 910.00 kg
Gesamtmasse 960.00 kg
Länge 0.30 m
Durchmesser 4.10 m
Spannweite 29.00 m
Form Box + pan
Hersteller SPXS
Bus-Typ Starlink V2MD
Phasenstatus In Orbit
Besitzer/Staat SPXS/US

Große Konstellationen

Loading constellations...